[[{"header":{"parameterUnit":"m.s-1","parameterCategory":1,"la1":30.2991,"la2":30.254,"lo1":-89.0895,"lo2":-89.0444,"dy":0.0017,"dx":0.0017,"nx":28,"ny":28,"refTime":"2024-04-28T03:00:00:Z","depth":0,"parameterNumber":2,"parameterNumberName":"U-component_of_WINDS"},"data":[0,0,0,0,0,0,0,0,0,0,0,0,0,0,0,0,0,0,0,0,0,0,0,0,0,0,0,0,0,0,0,0,0,0,0,0,0,0,0,0,0,0,0,0,0,0,0,0,0,0,0,0,0,0,0,0,0,0,-7.2173,-7.2175,0,-7.2324,-7.2325,-7.2327,-7.2299,-7.2297,-7.2294,-7.2291,-7.244,-7.2446,-7.2453,0,0,0,0,0,0,0,0,0,0,0,0,0,-7.1858,-7.1864,-7.2173,-7.2175,-7.2177,-7.2323,-7.2325,-7.2327,-7.23,-7.2296,-7.2293,-7.229,-7.2438,-7.2446,-7.2453,0,0,0,0,0,0,0,0,0,0,0,0,0,-7.2,-7.1866,-7.2173,-7.2181,-7.2183,-7.2323,-7.2325,-7.2328,-7.23,-7.2296,-7.2292,-7.2289,-7.2436,-7.2445,-7.2454,-7.2594,0,0,-7.2484,-7.2488,0,0,0,0,0,0,0,0,-7.1992,-7.2012,-7.2178,-7.2181,-7.2183,-7.2289,-7.2269,-7.2417,-7.2301,-7.2256,-7.2291,-7.2287,-7.2393,-7.2406,-7.2442,-7.2601,-7.2607,-7.2485,-7.2491,-7.2495,-7.2498,0,0,0,0,0,0,0,-7.1983,-7.2005,-7.2232,-7.218,-7.2184,-7.2176,-7.2192,-7.2297,-7.2345,-7.2259,-7.2258,-7.2276,-7.2393,-7.2433,-7.2446,-7.2609,-7.2485,-7.2493,-7.2499,-7.2503,-7.2889,-7.2893,0,0,0,0,0,0,-7.1971,-7.1997,-7.2228,-7.2237,-7.2076,-7.2185,-7.2202,-7.2259,-7.2343,-7.2353,-7.2279,-7.2274,-7.2419,-7.2434,-7.2451,-7.2618,-7.2495,-7.2504,-7.2509,-7.2885,-7.289,-7.2895,0,0,0,0,0,0,-7.1964,-7.1992,-7.2222,-7.2117,-7.2146,-7.2194,-7.2258,-7.2264,-7.2304,-7.2359,-7.2367,-7.2312,-7.2416,-7.2437,-7.2559,-7.2623,-7.2508,-7.2517,-7.2879,-7.2886,-7.2893,-7.2954,0,0,0,0,0,0,-7.1955,-7.1989,-7.2044,-7.2118,-7.2151,-7.2328,-7.2262,-7.227,-7.2321,-7.2316,-7.2391,-7.2399,-7.2415,-7.2544,-7.2568,-7.2634,-7.2525,-7.2874,-7.2883,-7.289,-7.2947,-7.2962,-7.2976,0,0,0,0,0,-7.1944,-7.2054,-7.2046,-7.2074,-7.222,-7.2332,-7.2351,-7.2367,-7.2326,-7.238,-7.2416,-7.2397,-7.2613,-7.2557,-7.2584,-7.2653,-7.287,-7.288,-7.289,-7.294,-7.2959,-7.2975,0,0,0,0,0,0,-7.1983,-7.2064,-7.2056,-7.2194,-7.2257,-7.2327,-7.2396,-7.2387,-7.2461,-7.2453,-7.2469,-7.2487,-7.261,-7.2644,-7.2581,-7.2793,-7.2735,-7.2751,-7.2765,-7.2783,-7.2797,-7.2785,-7.2533,0,0,0,0,0,-7.2009,-7.2094,-7.2159,-7.2275,-7.2307,-7.2346,-7.2395,-7.2403,-7.2468,-7.2494,-7.2538,-7.26,-7.2682,-7.2735,-7.2814,-7.2953,-7.2968,-7.3015,-7.3029,-7.3041,-7.3053,-7.3128,-7.3148,-7.2928,-7.2928,-7.2928,0,0,-7.206,-7.2115,-7.2167,-7.2284,-7.2333,-7.242,-7.2368,-7.2462,-7.2526,-7.2507,-7.2624,-7.266,-7.273,-7.2861,-7.2921,-7.2894,-7.3118,-7.3053,-7.3062,-7.3068,-7.314,-7.3161,-7.3179,-7.2935,-7.2934,-7.2932,0,0,-7.2198,-7.2249,-7.235,-7.2401,-7.2478,-7.2504,-7.2528,-7.2601,-7.2624,-7.2743,-7.273,-7.2806,-7.2948,-7.2998,-7.3042,-7.3202,-7.3186,-7.3227,-7.3301,-7.3374,-7.3391,-7.3406,-7.3461,-7.348,-7.324,-7.324,-7.324,0,-7.2251,-7.2383,-7.2403,-7.2498,-7.2549,-7.2539,-7.2641,-7.2689,-7.2786,-7.2821,-7.279,-7.2967,-7.3014,-7.3156,-7.3195,-7.3232,-7.3259,-7.3216,-7.3387,-7.3403,-7.3418,-7.3469,-7.349,-7.3244,-7.3244,-7.3243,-7.3243,0,-7.2444,-7.2535,-7.2608,-7.2703,-7.2763,-7.2861,-7.2894,-7.2952,-7.2956,-7.2985,-7.3105,-7.3162,-7.3251,-7.3287,-7.3291,-7.3429,-7.341,-7.3384,-7.3325,-7.3442,-7.3491,-7.3511,-7.325,-7.3249,-7.3248,-7.3247,0,0,-7.2606,-7.2714,-7.274,-7.2783,-7.2868,-7.2938,-7.3036,-7.3125,-7.3173,-7.3242,-7.3322,-7.3443,-7.342,-7.347,-7.348,-7.3545,-7.3665,-7.351,-7.3512,-7.3534,-7.3818,-7.3834,-7.3857,-7.3657,-7.3661,-7.3664,-7.3811,0,-7.2749,-7.2922,-7.2944,-7.3097,-7.318,-7.3174,-7.3259,-7.3319,-7.335,-7.3424,-7.3458,-7.3542,-7.3506,-7.3536,-7.36,-7.3636,-7.3721,-7.3627,-7.3729,-7.3732,-7.3707,-7.3883,-7.3901,-7.4037,-7.3831,-7.3834,-7.3836,0,-7.2938,-7.3013,-7.3175,-7.3249,-7.3284,-7.336,-7.3444,-7.3516,-7.3584,-7.3602,-7.366,-7.3662,-7.3761,-7.3703,-7.3839,-7.3775,-7.3819,-7.3843,-7.3849,-7.3855,-7.3788,-7.3891,-7.4081,-7.41,-7.3867,-7.3865,-7.3862,0,-7.3036,-7.3179,-7.3293,-7.3331,-7.3421,-7.3474,-7.3513,-7.3578,-7.363,-7.3704,-7.3737,-7.3821,-7.3866,-7.393,-7.3954,-7.391,-7.4089,-7.4033,-7.4103,-7.4103,-7.4137,-7.4134,-7.4333,-7.4173,-7.4172,-7.4172,-7.4171,0,-7.3191,-7.329,-7.3339,-7.3409,-7.3519,-7.3543,-7.3651,-7.3688,-7.3746,-7.3822,-7.3823,-7.3894,-7.3924,-7.4,-7.402,-7.4128,-7.415,-7.4165,-7.4168,-7.4163,-7.416,-7.4188,-7.4178,-7.4177,-7.4176,-7.4175,-7.4174,0,-7.3318,-7.3355,-7.3479,-7.3555,-7.3576,-7.3653,-7.3717,-7.3784,-7.3816,-7.3912,-7.3936,-7.3984,-7.4074,-7.4106,-7.4214,-7.4228,-7.4352,-7.435,-7.4329,-7.4329,-7.4396,-7.4388,-7.4617,-7.4647,-7.447,-7.4472,-7.4474,0,-7.3412,-7.3488,-7.3572,-7.3624,-7.3666,-7.3749,-7.3803,-7.3831,-7.3887,-7.3972,-7.4029,-7.4118,-7.419,-7.4334,-7.4377,-7.446,-7.4457,-7.4532,-7.4469,-7.4461,-7.4454,-7.4448,-7.4454,-7.4542,-7.4543,-7.4545,-7.4546,0,-7.3574,-7.359,-7.3668,-7.3754,-7.3819,-7.3887,-7.3953,-7.3995,-7.4033,-7.4096,-7.4188,-7.4245,-7.4357,-7.4444,-7.453,-7.4569,-7.4563,-7.4567,-7.4587,-7.4579,-7.4563,-7.4569,-7.4357,-7.456,-7.4558,-7.4557,-7.4557,-7.4556,-7.3685,-7.3752,-7.3822,-7.3909,-7.3963,-7.4025,-7.4091,-7.4132,-7.421,-7.4304,-7.4316,-7.4414,-7.4482,-7.4596,-7.4639,-7.4716,-7.4695,-7.4725,-7.4732,-7.4738,-7.4741,-7.4555,-7.4732,-7.4732,-7.4731,-7.4731,-7.4731,0,-7.3845,-7.389,-7.3971,-7.4064,-7.4133,-7.4126,-7.4199,-7.4256,-7.4343,-7.4407,-7.4479,-7.4585,-7.4671,-7.4723,-7.4809,-7.486,-7.4859,-7.4881,-7.4875,-7.4884,-7.4756,-7.4729,-7.488,-7.488,-7.488,-7.488,-7.488,-7.488,-7.3936,-7.4047,-7.4071,-7.4209,-7.4254,-7.4351,-7.4393,-7.445,-7.4501,-7.462,-7.4692,-7.4726,-7.4785,-7.4875,-7.4954,-7.4967,-7.4996,-7.502,-7.503,-7.4909,-7.4893,-7.4878,-7.4852,-7.5027,-7.5027,-7.5151,-7.5152,-7.5153]},{"header":{"parameterUnit":"m.s-1","parameterCategory":1,"la1":30.2991,"la2":30.254,"lo1":-89.0895,"lo2":-89.0444,"dy":0.0017,"dx":0.0017,"nx":28,"ny":28,"refTime":"2024-04-28T03:00:00:Z","depth":0,"parameterNumber":3,"parameterNumberName":"V-component_of_WINDS"},"data":[0,0,0,0,0,0,0,0,0,0,0,0,0,0,0,0,0,0,0,0,0,0,0,0,0,0,0,0,0,0,0,0,0,0,0,0,0,0,0,0,0,0,0,0,0,0,0,0,0,0,0,0,0,0,0,0,0,0,5.2647,5.2647,0,5.271,5.2711,5.2711,5.2676,5.2674,5.2672,5.2671,5.2731,5.2734,5.2737,0,0,0,0,0,0,0,0,0,0,0,0,0,5.2492,5.2495,5.2647,5.2647,5.2648,5.271,5.2711,5.2711,5.2676,5.2674,5.2672,5.267,5.273,5.2733,5.2737,0,0,0,0,0,0,0,0,0,0,0,0,0,5.2558,5.2496,5.2646,5.2638,5.2638,5.271,5.2711,5.2712,5.2676,5.2674,5.2671,5.2669,5.2728,5.2733,5.2738,5.282,0,0,5.2752,5.2755,0,0,0,0,0,0,0,0,5.2554,5.2563,5.2639,5.2639,5.2639,5.2682,5.2678,5.2748,5.2677,5.2662,5.2671,5.2668,5.2716,5.2722,5.2739,5.2823,5.2825,5.2753,5.2756,5.2758,5.2759,0,0,0,0,0,0,0,5.2549,5.256,5.2671,5.264,5.264,5.263,5.2637,5.2691,5.2703,5.2663,5.266,5.2669,5.2716,5.2735,5.2741,5.2826,5.2753,5.2757,5.276,5.2762,5.2981,5.2984,0,0,0,0,0,0,5.2546,5.2557,5.2669,5.2673,5.2589,5.2635,5.2642,5.2671,5.2702,5.2704,5.2671,5.2667,5.2728,5.2735,5.2743,5.2842,5.2758,5.2762,5.2765,5.2978,5.2982,5.2985,0,0,0,0,0,0,5.2543,5.2556,5.2667,5.2615,5.2628,5.2641,5.2673,5.2674,5.2692,5.2708,5.271,5.2688,5.2726,5.2736,5.2802,5.2843,5.2765,5.2769,5.2975,5.2979,5.2983,5.304,0,0,0,0,0,0,5.2538,5.2555,5.2587,5.2616,5.2631,5.2726,5.2676,5.2677,5.2702,5.2697,5.2725,5.2727,5.2725,5.2795,5.2806,5.2848,5.2773,5.2971,5.2977,5.2982,5.3034,5.3046,5.3055,0,0,0,0,0,5.2533,5.2599,5.2589,5.2603,5.2671,5.2728,5.2737,5.2734,5.2705,5.2737,5.2747,5.2726,5.2837,5.2802,5.2815,5.2859,5.2968,5.2975,5.2982,5.3029,5.3043,5.3055,0,0,0,0,0,0,5.2573,5.2603,5.2592,5.2669,5.2697,5.2722,5.2762,5.2749,5.2784,5.2778,5.2772,5.2778,5.2847,5.2859,5.282,5.294,5.2898,5.2907,5.293,5.2943,5.2953,5.2949,5.2777,0,0,0,0,0,5.2592,5.2637,5.2659,5.2726,5.274,5.2749,5.2774,5.277,5.2798,5.2808,5.2823,5.285,5.2891,5.2918,5.2956,5.3036,5.3042,5.3073,5.3083,5.3092,5.31,5.3144,5.3159,5.3007,5.3007,5.3006,0,0,5.2629,5.2651,5.2679,5.2734,5.2755,5.2802,5.2759,5.2809,5.2843,5.2815,5.2879,5.2892,5.2921,5.2995,5.3028,5.3007,5.3144,5.31,5.3107,5.3111,5.3153,5.3167,5.318,5.3011,5.301,5.301,0,0,5.2721,5.2742,5.28,5.2823,5.2856,5.2862,5.2876,5.2904,5.2912,5.2976,5.2957,5.2996,5.3067,5.3089,5.3109,5.3212,5.3195,5.3225,5.3279,5.3323,5.3335,5.3345,5.3383,5.3396,5.3233,5.3233,5.3233,0,5.2762,5.2833,5.2831,5.2884,5.2909,5.2888,5.2947,5.2968,5.3012,5.3029,5.3005,5.3095,5.3113,5.3192,5.3218,5.3235,5.325,5.3221,5.3333,5.3344,5.3354,5.3389,5.3403,5.3237,5.3236,5.3236,5.3236,0,5.2883,5.2932,5.2975,5.302,5.3049,5.3105,5.3111,5.3141,5.3135,5.3143,5.321,5.3231,5.3274,5.3293,5.3286,5.3372,5.3358,5.3334,5.3291,5.3372,5.3405,5.3419,5.3242,5.324,5.3239,5.3239,0,0,5.3,5.3045,5.3061,5.3082,5.3118,5.3155,5.321,5.3254,5.328,5.3311,5.3357,5.3418,5.3397,5.3421,5.3417,5.3455,5.3536,5.3426,5.3427,5.3446,5.3632,5.365,5.3666,5.3525,5.3528,5.353,5.363,0,5.3094,5.3192,5.3193,5.3282,5.3328,5.331,5.3357,5.3384,5.3394,5.3433,5.3443,5.3487,5.3456,5.347,5.3507,5.3518,5.3573,5.3511,5.3567,5.3569,5.356,5.3683,5.3701,5.3795,5.3643,5.3645,5.3647,0,5.3217,5.3255,5.3349,5.3381,5.34,5.3443,5.3484,5.3522,5.3553,5.3557,5.3585,5.3576,5.3631,5.3587,5.3663,5.3621,5.3644,5.3653,5.3657,5.3661,5.3612,5.3691,5.3825,5.3839,5.3667,5.3665,5.3664,0,5.3294,5.3368,5.3435,5.3453,5.3491,5.3522,5.3539,5.3567,5.3594,5.363,5.3647,5.3688,5.3711,5.3743,5.3745,5.3713,5.3822,5.3778,5.3826,5.3827,5.3849,5.3848,5.3989,5.3865,5.3864,5.3864,5.3864,0,5.3399,5.3458,5.347,5.3511,5.3576,5.3577,5.3641,5.3655,5.368,5.3723,5.371,5.375,5.3751,5.3791,5.3793,5.3856,5.3866,5.3871,5.3871,5.3872,5.3872,5.3887,5.388,5.3868,5.3867,5.3866,5.3866,0,5.3496,5.3506,5.3578,5.3609,5.3618,5.3665,5.3691,5.373,5.3739,5.3793,5.3806,5.382,5.3868,5.3874,5.3928,5.393,5.4006,5.3999,5.3996,5.3995,5.4044,5.4039,5.4199,5.422,5.4082,5.4083,5.4084,0,5.3562,5.3607,5.3644,5.3673,5.3693,5.3738,5.3767,5.377,5.3799,5.3839,5.3873,5.392,5.3957,5.4034,5.4049,5.4091,5.4085,5.4138,5.4091,5.4091,5.4086,5.4083,5.4088,5.4147,5.4148,5.4149,5.415,0,5.3679,5.3683,5.3725,5.377,5.3805,5.384,5.3873,5.3897,5.3903,5.3938,5.3987,5.4017,5.4075,5.4121,5.4163,5.418,5.4166,5.4165,5.4179,5.4181,5.4178,5.418,5.4021,5.4161,5.416,5.4159,5.4159,5.4158,5.3763,5.3803,5.3836,5.3884,5.3909,5.3941,5.398,5.3995,5.4037,5.4085,5.4084,5.4139,5.4169,5.4225,5.4245,5.4287,5.4269,5.4289,5.4294,5.4298,5.4304,5.4172,5.4295,5.4294,5.4294,5.4294,5.4293,0,5.388,5.3901,5.3945,5.3993,5.4031,5.4017,5.4053,5.4085,5.4135,5.4165,5.4203,5.4261,5.4307,5.4326,5.437,5.4401,5.4396,5.4412,5.441,5.4414,5.4317,5.4301,5.4416,5.4416,5.4416,5.4416,5.4416,5.4416,5.3946,5.4013,5.4021,5.41,5.412,5.4176,5.4198,5.4226,5.4251,5.4317,5.4356,5.4368,5.4394,5.4441,5.4482,5.4487,5.4504,5.4523,5.4525,5.4433,5.4421,5.4409,5.4394,5.4527,5.4527,5.4619,5.462,5.4621]}]]